| time (UTC) | temp C | wind direction | speed KPH | gust KPH | rain 1hr cm | rain 24hr cm | rain mn cm | humidity % | barometer mb |
| 20260509031008 | 8 | 340 | 0.0 | 0.0 | 0.00 | 0.00 | 0.00 | 88 | 1018.9 |
| 20260509024008 | 8 | 340 | 0.0 | 0.0 | 0.00 | 0.00 | 0.00 | 88 | 1018.9 |
| 20260509023508 | 8 | 340 | 0.0 | 1.6 | 0.00 | 0.00 | 0.00 | 88 | 1018.9 |
| 20260509023008 | 8 | 340 | 0.0 | 0.0 | 0.00 | 0.00 | 0.00 | 88 | 1018.9 |
| 20260509022507 | 8 | 340 | 0.0 | 0.0 | 0.00 | 0.00 | 0.00 | 88 | 1018.9 |
| 20260509022007 | 8 | 340 | 0.0 | 0.0 | 0.00 | 0.00 | 0.00 | 88 | 1018.9 |
| 20260509021507 | 8 | 340 | 0.0 | 0.0 | 0.00 | 0.00 | 0.00 | 88 | 1018.9 |
| 20260509021008 | 8 | 340 | 0.0 | 0.0 | 0.00 | 0.00 | 0.00 | 88 | 1018.9 |
| 20260509020007 | 8 | 340 | 0.0 | 0.0 | 0.00 | 0.00 | 0.00 | 88 | 1018.9 |
| 20260509015007 | 8 | 340 | 0.0 | 0.0 | 0.00 | 0.00 | 0.00 | 87 | 1018.9 |
| 20260509010007 | 9 | 340 | 0.0 | 0.0 | 0.00 | 0.00 | 0.00 | 85 | 1019.2 |
| 20260509004008 | 10 | 340 | 0.0 | 0.0 | 0.00 | 0.00 | 0.00 | 84 | 1019.0 |
| 20260509003507 | 10 | 340 | 0.0 | 0.0 | 0.00 | 0.00 | 0.00 | 83 | 1019.1 |
| 20260509003007 | 10 | 340 | 0.0 | 0.0 | 0.00 | 0.00 | 0.00 | 83 | 1019.0 |
| 20260509002507 | 10 | 340 | 0.0 | 0.0 | 0.00 | 0.00 | 0.00 | 83 | 1018.9 |
| 20260509000006 | 10 | 340 | 0.0 | 0.0 | 0.00 | 0.00 | 0.00 | 82 | 1018.9 |
| 20260508235507 | 10 | 340 | 0.0 | 0.0 | 0.00 | 0.00 | 0.00 | 83 | 1018.9 |
| 20260508234007 | 10 | 340 | 0.0 | 0.0 | 0.00 | 0.00 | 0.00 | 84 | 1018.9 |
| 20260508233508 | 10 | 340 | 0.0 | 0.0 | 0.00 | 0.00 | 0.00 | 84 | 1018.9 |
| 20260508233007 | 10 | 340 | 0.0 | 0.0 | 0.00 | 0.00 | 0.00 | 85 | 1018.9 |
| 20260508232507 | 10 | 340 | 0.0 | 0.0 | 0.00 | 0.00 | 0.00 | 85 | 1018.9 |
| 20260508232007 | 10 | 340 | 0.0 | 0.0 | 0.00 | 0.00 | 0.00 | 85 | 1018.9 |
| 20260508230007 | 10 | 340 | 0.0 | 0.0 | 0.00 | 0.00 | 0.00 | 83 | 1018.9 |
| 20260508225506 | 10 | 340 | 0.0 | 0.0 | 0.00 | 0.00 | 0.00 | 83 | 1018.8 |
| 20260508225007 | 10 | 340 | 0.0 | 0.0 | 0.00 | 0.00 | 0.00 | 83 | 1018.9 |
| 20260508224507 | 10 | 340 | 0.0 | 0.0 | 0.00 | 0.00 | 0.00 | 82 | 1018.9 |
| 20260508224007 | 10 | 340 | 0.0 | 0.0 | 0.00 | 0.00 | 0.00 | 82 | 1018.9 |
| 20260508223507 | 10 | 340 | 0.0 | 0.0 | 0.00 | 0.00 | 0.00 | 81 | 1018.9 |
| 20260508223006 | 11 | 340 | 0.0 | 0.0 | 0.00 | 0.00 | 0.00 | 81 | 1018.9 |
| 20260508222506 | 11 | 340 | 0.0 | 0.0 | 0.00 | 0.00 | 0.00 | 81 | 1019.0 |
| 20260508222007 | 11 | 340 | 0.0 | 0.0 | 0.00 | 0.00 | 0.00 | 81 | 1019.0 |
| 20260508221506 | 11 | 340 | 0.0 | 0.0 | 0.00 | 0.00 | 0.00 | 80 | 1019.0 |
| 20260508221007 | 11 | 340 | 0.0 | 0.0 | 0.00 | 0.00 | 0.00 | 80 | 1018.9 |
| 20260508215007 | 11 | 340 | 0.0 | 0.0 | 0.00 | 0.00 | 0.00 | 79 | 1018.9 |
| 20260508214506 | 11 | 340 | 0.0 | 0.0 | 0.00 | 0.00 | 0.00 | 78 | 1018.9 |
| 20260508214007 | 11 | 340 | 0.0 | 0.0 | 0.00 | 0.00 | 0.00 | 78 | 1018.9 |
| 20260508212506 | 12 | 340 | 0.0 | 0.0 | 0.00 | 0.00 | 0.00 | 76 | 1018.9 |
| 20260508211506 | 12 | 340 | 0.0 | 0.0 | 0.00 | 0.00 | 0.00 | 75 | 1018.9 |
| 20260508211008 | 12 | 340 | 0.0 | 0.0 | 0.00 | 0.00 | 0.00 | 75 | 1018.9 |
| 20260508210006 | 12 | 340 | 0.0 | 0.0 | 0.00 | 0.00 | 0.00 | 74 | 1018.9 |
| 20260508204506 | 13 | 340 | 0.0 | 0.0 | 0.00 | 0.00 | 0.00 | 73 | 1018.8 |
| 20260508204007 | 13 | 340 | 0.0 | 0.0 | 0.00 | 0.00 | 0.00 | 73 | 1018.9 |
| 20260508203506 | 13 | 340 | 0.0 | 0.0 | 0.00 | 0.00 | 0.00 | 72 | 1018.9 |
| 20260508203006 | 13 | 340 | 0.0 | 0.0 | 0.00 | 0.00 | 0.00 | 72 | 1018.9 |
| 20260508202506 | 13 | 340 | 0.0 | 0.0 | 0.00 | 0.00 | 0.00 | 71 | 1018.9 |
| 20260508192006 | 15 | 340 | 0.0 | 1.6 | 0.00 | 0.00 | 0.00 | 62 | 1018.4 |
| 20260508191506 | 15 | 340 | 0.0 | 3.2 | 0.00 | 0.00 | 0.00 | 62 | 1018.4 |
| 20260508190006 | 16 | 340 | 1.6 | 4.8 | 0.00 | 0.00 | 0.00 | 61 | 1018.3 |
| 20260508185506 | 16 | 340 | 0.0 | 4.8 | 0.00 | 0.00 | 0.00 | 60 | 1018.3 |
| 20260508183506 | 16 | 340 | 1.6 | 8.0 | 0.00 | 0.00 | 0.00 | 60 | 1018.0 |
| 20260508183006 | 16 | 340 | 1.6 | 4.8 | 0.00 | 0.00 | 0.00 | 60 | 1017.9 |
| 20260508182505 | 16 | 340 | 1.6 | 4.8 | 0.00 | 0.00 | 0.00 | 60 | 1017.9 |
| 20260508182006 | 16 | 340 | 3.2 | 8.0 | 0.00 | 0.00 | 0.00 | 60 | 1017.9 |
| 20260508181505 | 16 | 340 | 4.8 | 9.7 | 0.00 | 0.00 | 0.00 | 59 | 1017.9 |
| 20260508181006 | 16 | 340 | 6.4 | 9.7 | 0.00 | 0.00 | 0.00 | 59 | 1017.9 |
| 20260508174006 | 16 | 335 | 3.2 | 8.0 | 0.00 | 0.00 | 0.00 | 59 | 1017.8 |
| 20260508173508 | 16 | 334 | 4.8 | 11.3 | 0.00 | 0.00 | 0.00 | 59 | 1017.7 |
| 20260508173006 | 16 | 334 | 4.8 | 8.0 | 0.00 | 0.00 | 0.00 | 60 | 1017.7 |
| 20260508172006 | 16 | 334 | 4.8 | 8.0 | 0.00 | 0.00 | 0.00 | 59 | 1017.7 |
| 20260508171505 | 16 | 335 | 4.8 | 8.0 | 0.00 | 0.00 | 0.00 | 59 | 1017.6 |
| 20260508171006 | 16 | 338 | 3.2 | 11.3 | 0.00 | 0.00 | 0.00 | 59 | 1017.6 |
| 20260508164505 | 16 | 3 | 1.6 | 4.8 | 0.00 | 0.00 | 0.00 | 51 | 1017.4 |
| 20260508164005 | 16 | 3 | 8.0 | 11.3 | 0.00 | 0.00 | 0.00 | 50 | 1017.4 |
| 20260508163505 | 16 | 327 | 4.8 | 9.7 | 0.00 | 0.00 | 0.00 | 52 | 1017.3 |
| 20260508163006 | 16 | 33 | 4.8 | 9.7 | 0.00 | 0.00 | 0.00 | 51 | 1017.3 |
| 20260508162506 | 17 | 33 | 3.2 | 8.0 | 0.00 | 0.00 | 0.00 | 52 | 1017.3 |
| 20260508162006 | 17 | 35 | 3.2 | 8.0 | 0.00 | 0.00 | 0.00 | 51 | 1017.3 |
| 20260508160006 | 17 | 326 | 4.8 | 9.7 | 0.00 | 0.00 | 0.00 | 47 | 1017.3 |
| 20260508155505 | 18 | 302 | 3.2 | 9.7 | 0.00 | 0.00 | 0.00 | 46 | 1017.3 |
| 20260508153506 | 17 | 0 | 3.2 | 8.0 | 0.00 | 0.00 | 0.00 | 47 | 1017.3 |
| 20260508152005 | 17 | 56 | 3.2 | 8.0 | 0.00 | 0.00 | 0.00 | 46 | 1017.4 |
| 20260508143005 | 17 | 0 | 8.0 | 11.3 | 0.00 | 0.00 | 0.00 | 52 | 1017.5 |
| 20260508142505 | 17 | 4 | 6.4 | 12.9 | 0.00 | 0.00 | 0.00 | 53 | 1017.6 |
| 20260508142005 | 17 | 3 | 3.2 | 11.3 | 0.00 | 0.00 | 0.00 | 53 | 1017.6 |
| 20260508141505 | 17 | 84 | 0.0 | 4.8 | 0.00 | 0.00 | 0.00 | 49 | 1017.7 |
| 20260508141006 | 17 | 84 | 1.6 | 4.8 | 0.00 | 0.00 | 0.00 | 52 | 1017.7 |
| 20260508132005 | 16 | 142 | 4.8 | 9.7 | 0.00 | 0.00 | 0.00 | 57 | 1017.9 |
| 20260508131505 | 16 | 144 | 1.6 | 8.0 | 0.00 | 0.00 | 0.00 | 56 | 1017.9 |
| 20260508124005 | 16 | 11 | 1.6 | 9.7 | 0.00 | 0.00 | 0.00 | 57 | 1017.9 |
| 20260508123504 | 16 | 355 | 3.2 | 11.3 | 0.00 | 0.00 | 0.00 | 56 | 1017.9 |
| 20260508123005 | 17 | 53 | 4.8 | 8.0 | 0.00 | 0.00 | 0.00 | 57 | 1017.9 |
| 20260508122505 | 17 | 10 | 1.6 | 4.8 | 0.00 | 0.00 | 0.00 | 57 | 1017.9 |
| 20260508122005 | 17 | 10 | 1.6 | 14.5 | 0.00 | 0.00 | 0.00 | 57 | 1017.9 |
| 20260508115005 | 16 | 105 | 3.2 | 12.9 | 0.00 | 0.00 | 0.00 | 58 | 1017.9 |
| 20260508114504 | 17 | 327 | 4.8 | 9.7 | 0.00 | 0.00 | 0.00 | 57 | 1017.9 |
| 20260508114005 | 16 | 121 | 3.2 | 12.9 | 0.00 | 0.00 | 0.00 | 60 | 1017.9 |
| 20260508113504 | 16 | 127 | 4.8 | 16.1 | 0.00 | 0.00 | 0.00 | 59 | 1017.9 |
| 20260508113005 | 16 | 94 | 3.2 | 11.3 | 0.00 | 0.00 | 0.00 | 61 | 1017.9 |
| 20260508112505 | 16 | 93 | 4.8 | 12.9 | 0.00 | 0.00 | 0.00 | 60 | 1018.0 |
| 20260508112004 | 16 | 92 | 4.8 | 14.5 | 0.00 | 0.00 | 0.00 | 61 | 1017.9 |
| 20260508111505 | 16 | 117 | 3.2 | 11.3 | 0.00 | 0.00 | 0.00 | 62 | 1018.0 |
| 20260508111005 | 16 | 155 | 4.8 | 12.9 | 0.00 | 0.00 | 0.00 | 62 | 1018.1 |
| 20260508110005 | 16 | 106 | 3.2 | 8.0 | 0.00 | 0.00 | 0.00 | 63 | 1018.2 |
| 20260508105505 | 15 | 105 | 3.2 | 11.3 | 0.00 | 0.00 | 0.00 | 63 | 1018.2 |
| 20260508095005 | 14 | 96 | 4.8 | 14.5 | 0.00 | 0.00 | 0.00 | 69 | 1018.4 |
| 20260508094504 | 13 | 96 | 3.2 | 14.5 | 0.00 | 0.00 | 0.00 | 69 | 1018.4 |
| 20260508090004 | 13 | 98 | 6.4 | 12.9 | 0.00 | 0.00 | 0.00 | 73 | 1018.4 |
| 20260508085504 | 12 | 53 | 3.2 | 14.5 | 0.00 | 0.00 | 0.00 | 74 | 1018.4 |
| 20260508085005 | 12 | 116 | 4.8 | 12.9 | 0.00 | 0.00 | 0.00 | 75 | 1018.4 |
| 20260508084504 | 12 | 133 | 3.2 | 11.3 | 0.00 | 0.00 | 0.00 | 77 | 1018.4 |
| 20260508084009 | 12 | 89 | 6.4 | 12.9 | 0.00 | 0.00 | 0.00 | 77 | 1018.4 |
| 20260508083508 | 12 | 111 | 4.8 | 12.9 | 0.00 | 0.00 | 0.00 | 78 | 1018.4 |
| 20260508083008 | 12 | 115 | 9.7 | 16.1 | 0.00 | 0.00 | 0.00 | 78 | 1018.4 |
| 20260508082508 | 11 | 117 | 8.0 | 14.5 | 0.00 | 0.00 | 0.00 | 79 | 1018.4 |
| 20260508082009 | 11 | 100 | 9.7 | 16.1 | 0.00 | 0.00 | 0.00 | 79 | 1018.4 |
| 20260508081508 | 11 | 103 | 8.0 | 16.1 | 0.00 | 0.00 | 0.00 | 79 | 1018.4 |
| 20260508081009 | 11 | 109 | 8.0 | 16.1 | 0.00 | 0.00 | 0.00 | 80 | 1018.4 |
| 20260508074508 | 11 | 100 | 6.4 | 12.9 | 0.00 | 0.00 | 0.00 | 81 | 1018.4 |
| 20260508074009 | 11 | 99 | 4.8 | 14.5 | 0.00 | 0.00 | 0.00 | 82 | 1018.4 |
| 20260508073508 | 11 | 98 | 8.0 | 14.5 | 0.00 | 0.00 | 0.00 | 82 | 1018.4 |
| 20260508073009 | 11 | 98 | 6.4 | 11.3 | 0.00 | 0.00 | 0.00 | 82 | 1018.4 |
| 20260508064509 | 10 | 96 | 6.4 | 14.5 | 0.00 | 0.00 | 0.00 | 84 | 1018.0 |
| 20260508061508 | 10 | 95 | 4.8 | 9.7 | 0.00 | 0.00 | 0.00 | 84 | 1017.9 |
| 20260508061008 | 10 | 96 | 6.4 | 14.5 | 0.00 | 0.00 | 0.00 | 84 | 1017.9 |
| 20260508060008 | 10 | 95 | 4.8 | 11.3 | 0.00 | 0.00 | 0.00 | 84 | 1017.9 |
| 20260508055509 | 10 | 95 | 3.2 | 8.0 | 0.00 | 0.00 | 0.00 | 85 | 1017.9 |
| 20260508055008 | 10 | 95 | 4.8 | 8.0 | 0.00 | 0.00 | 0.00 | 85 | 1017.9 |
| 20260508052008 | 10 | 94 | 4.8 | 9.7 | 0.00 | 0.00 | 0.00 | 85 | 1017.7 |
| 20260508051508 | 10 | 94 | 4.8 | 11.3 | 0.00 | 0.00 | 0.00 | 85 | 1017.6 |
| 20260508051009 | 10 | 94 | 6.4 | 11.3 | 0.00 | 0.00 | 0.00 | 85 | 1017.5 |
| 20260508050008 | 10 | 9 | 3.2 | 8.0 | 0.00 | 0.00 | 0.00 | 85 | 1017.5 |
| 20260508045507 | 10 | 8 | 4.8 | 8.0 | 0.00 | 0.00 | 0.00 | 85 | 1017.4 |
| 20260508045008 | 10 | 3 | 4.8 | 4.8 | 0.00 | 0.00 | 0.00 | 85 | 1017.3 |
| 20260508044508 | 10 | 4 | 4.8 | 8.0 | 0.00 | 0.00 | 0.00 | 85 | 1017.3 |
| 20260508044007 | 10 | 0 | 3.2 | 4.8 | 0.00 | 0.00 | 0.00 | 85 | 1017.3 |
| 20260508043507 | 10 | 0 | 4.8 | 8.0 | 0.00 | 0.00 | 0.00 | 85 | 1017.3 |
| 20260508043008 | 10 | 355 | 3.2 | 8.0 | 0.00 | 0.00 | 0.00 | 85 | 1017.3 |
| 20260508042008 | 10 | 355 | 4.8 | 8.0 | 0.00 | 0.00 | 0.00 | 85 | 1017.3 |
| 20260508035507 | 10 | 90 | 9.7 | 14.5 | 0.00 | 0.00 | 0.00 | 84 | 1017.3 |
| 20260508035008 | 10 | 83 | 4.8 | 12.9 | 0.00 | 0.00 | 0.00 | 83 | 1017.3 |
| 20260508033508 | 10 | 80 | 4.8 | 11.3 | 0.00 | 0.00 | 0.00 | 83 | 1017.3 |
| 20260508031508 | 10 | 80 | 3.2 | 9.7 | 0.00 | 0.00 | 0.00 | 83 | 1017.2 |